Greenville, TX

5:02 PM CDT on August 21, 2017 (GMT -0500)
Majors

Weather History for KGVT - January, 2014

Change the Weather History Date:

Sunday, January 19, 2014

  Actual Average Record
Temperature  
Mean Temperature 46 °F -  
Max Temperature 60 °F 54 °F 71 °F (2000)
Min Temperature 32 °F 38 °F 26 °F (2004)
Degree Days  
Heating Degree Days 19    
Moisture  
Dew Point 26 °F    
Average Humidity 51    
Maximum Humidity 80    
Minimum Humidity 22    
Precipitation  
Precipitation 0.00 in - - ()
Sea Level Pressure  
Sea Level Pressure 30.19 in    
Wind  
Wind Speed 4 mph (SW)    
Max Wind Speed 9 mph    
Max Gust Speed -    
Visibility 10 miles    
Events      
Averages and records for this station are not official NWS values.
T = Trace of Precipitation, MM = Missing Value Source: NWS Daily Summary

Daily Weather History Graph

Daily Weather History Graph

Search for Another Location

Airport or City:

Trip Planner

Search our weather history database for the weather conditions in past years. The results will help you decide how hot, cold, wet, or windy it might be!

Date:

Astronomy

Jan. 19, 2014 Rise Set
Actual Time 7:26 AM CST 5:44 PM CST
Civil Twilight 6:59 AM CST 6:10 PM CST
Nautical Twilight 6:29 AM CST 6:40 PM CST
Astronomical Twilight 5:59 AM CST 7:10 PM CST
Moon 9:09 PM CST (1/19) 9:09 AM CST (1/19)
Length of Visible Light 11h 10m
Length of Day
10h 17m
Waning Gibbous, 89% of the Moon is Illuminated
Jan 19
Waning Gibbous
Jan 23
Last Quarter
Jan 30
New
Feb 6
First Quarter
Feb 14
Full

Hourly Weather History & Observations

Time (CST) Temp. Windchill Dew Point Humidity Pressure Visibility Wind Dir Wind Speed Gust Speed Precip Events Conditions
12:15 AM 42.8 °F 41.1 °F 26.6 °F 53% 30.17 in 10.0 mi NW 3.5 mph - N/A   Clear
12:35 AM 42.8 °F 40.1 °F 26.6 °F 53% 30.17 in 10.0 mi NNW 4.6 mph - N/A   Clear
12:55 AM 42.8 °F 41.1 °F 24.8 °F 49% 30.18 in 10.0 mi NW 3.5 mph - N/A   Clear
1:15 AM 44.6 °F 42.2 °F 23.0 °F 43% 30.18 in 10.0 mi WNW 4.6 mph - N/A   Clear
1:35 AM 42.8 °F 40.1 °F 24.8 °F 49% 30.18 in 10.0 mi NNW 4.6 mph - N/A   Clear
1:55 AM 41.0 °F 38.0 °F 26.6 °F 57% 30.19 in 10.0 mi NW 4.6 mph - N/A   Clear
2:15 AM 42.8 °F 38.6 °F 24.8 °F 49% 30.20 in 10.0 mi NNW 6.9 mph - N/A   Clear
2:35 AM 41.0 °F 38.0 °F 24.8 °F 53% 30.21 in 10.0 mi NW 4.6 mph - N/A   Clear
2:55 AM 41.0 °F 39.0 °F 23.0 °F 49% 30.22 in 10.0 mi NNW 3.5 mph - N/A   Clear
3:15 AM 41.0 °F - 24.8 °F 53% 30.22 in 10.0 mi Calm Calm - N/A   Clear
3:35 AM 41.0 °F - 24.8 °F 53% 30.22 in 10.0 mi Calm Calm - N/A   Clear
3:55 AM 37.4 °F 33.8 °F 24.8 °F 60% 30.23 in 10.0 mi NW 4.6 mph - N/A   Clear
4:15 AM 37.4 °F 34.9 °F 26.6 °F 65% 30.22 in 10.0 mi NW 3.5 mph - N/A   Clear
4:35 AM 35.6 °F 31.7 °F 26.6 °F 70% 30.22 in 10.0 mi WNW 4.6 mph - N/A   Clear
4:55 AM 35.6 °F 32.8 °F 24.8 °F 65% 30.23 in 10.0 mi West 3.5 mph - N/A   Clear
5:15 AM 35.6 °F - 26.6 °F 70% 30.23 in 10.0 mi Calm Calm - N/A   Clear
5:35 AM 35.6 °F - 26.6 °F 70% 30.23 in 10.0 mi Calm Calm - N/A   Clear
5:55 AM 33.8 °F - 26.6 °F 75% 30.24 in 10.0 mi Calm Calm - N/A   Clear
6:15 AM 33.8 °F - 24.8 °F 70% 30.25 in 10.0 mi Calm Calm - N/A   Clear
6:35 AM 33.8 °F - 26.6 °F 75% 30.26 in 10.0 mi Calm Calm - N/A   Clear
6:55 AM 33.8 °F 30.8 °F 24.8 °F 70% 30.27 in 10.0 mi WNW 3.5 mph - N/A   Clear
7:15 AM 32.0 °F - 26.6 °F 80% 30.27 in 10.0 mi Calm Calm - N/A   Clear
7:35 AM 32.0 °F - 24.8 °F 75% 30.27 in 10.0 mi Calm Calm - N/A   Clear
7:55 AM 33.8 °F 29.6 °F 26.6 °F 75% 30.27 in 10.0 mi West 4.6 mph - N/A   Clear
8:15 AM 35.6 °F 32.8 °F 26.6 °F 70% 30.27 in 10.0 mi NW 3.5 mph - N/A   Clear
8:35 AM 37.4 °F 34.9 °F 28.4 °F 70% 30.28 in 10.0 mi WNW 3.5 mph - N/A   Clear
8:55 AM 41.0 °F 38.0 °F 28.4 °F 61% 30.29 in 10.0 mi WNW 4.6 mph - N/A   Clear
9:15 AM 42.8 °F 41.1 °F 28.4 °F 57% 30.30 in 10.0 mi WNW 3.5 mph - N/A   Clear
9:35 AM 44.6 °F 43.1 °F 28.4 °F 53% 30.30 in 10.0 mi WNW 3.5 mph - N/A   Clear
9:55 AM 46.4 °F 45.2 °F 26.6 °F 46% 30.30 in 10.0 mi NNW 3.5 mph - N/A   Clear
10:15 AM 48.2 °F - 24.8 °F 40% 30.30 in 10.0 mi Calm Calm - N/A   Clear
10:35 AM 50.0 °F - 23.0 °F 35% 30.31 in 10.0 mi Calm Calm - N/A   Clear
10:55 AM 50.0 °F - 23.0 °F 35% 30.31 in 10.0 mi West 3.5 mph - N/A   Clear
11:15 AM 51.8 °F - 23.0 °F 33% 30.30 in 10.0 mi Calm Calm - N/A   Clear
11:35 AM 51.8 °F - 23.0 °F 33% 30.29 in 10.0 mi Calm Calm - N/A   Clear
11:55 AM 53.6 °F - 23.0 °F 30% 30.28 in 10.0 mi Calm Calm - N/A   Clear
12:15 PM 53.6 °F - 23.0 °F 30% 30.26 in 10.0 mi WSW 4.6 mph - N/A   Clear
12:35 PM 55.4 °F - 23.0 °F 29% 30.24 in 10.0 mi WSW 5.8 mph - N/A   Clear
12:55 PM 55.4 °F - 23.0 °F 29% 30.22 in 10.0 mi Calm Calm - N/A   Clear
1:15 PM 57.2 °F - 24.8 °F 29% 30.22 in 10.0 mi WSW 4.6 mph - N/A   Clear
1:35 PM 59.0 °F - 23.0 °F 25% 30.21 in 10.0 mi Calm Calm - N/A   Clear
1:55 PM 59.0 °F - 23.0 °F 25% 30.19 in 10.0 mi SW 5.8 mph - N/A   Clear
2:15 PM 59.0 °F - 23.0 °F 25% 30.19 in 10.0 mi WSW 8.1 mph - N/A   Clear
2:35 PM 60.8 °F - 23.0 °F 23% 30.17 in 10.0 mi SW 4.6 mph - N/A   Clear
2:55 PM 60.8 °F - 23.0 °F 23% 30.17 in 10.0 mi SSW 5.8 mph - N/A   Clear
3:15 PM 60.8 °F - 21.2 °F 22% 30.16 in 10.0 mi SSW 6.9 mph - N/A   Clear
3:35 PM 60.8 °F - 23.0 °F 23% 30.16 in 10.0 mi SW 8.1 mph - N/A   Clear
3:55 PM 60.8 °F - 23.0 °F 23% 30.15 in 10.0 mi SW 8.1 mph - N/A   Clear
4:15 PM 60.8 °F - 23.0 °F 23% 30.14 in 10.0 mi WSW 8.1 mph - N/A   Clear
4:35 PM 60.8 °F - 23.0 °F 23% 30.14 in 10.0 mi SW 8.1 mph - N/A   Clear
4:55 PM 59.0 °F - 24.8 °F 27% 30.13 in 10.0 mi South 9.2 mph - N/A   Clear
5:15 PM 57.2 °F - 26.6 °F 31% 30.12 in 10.0 mi South 5.8 mph - N/A   Clear
5:35 PM 53.6 °F - 26.6 °F 35% 30.11 in 10.0 mi South 6.9 mph - N/A   Clear
5:55 PM 48.2 °F - 26.6 °F 43% 30.11 in 10.0 mi South 5.8 mph - N/A   Clear
6:15 PM 44.6 °F 42.2 °F 28.4 °F 53% 30.11 in 10.0 mi SSE 4.6 mph - N/A   Clear
6:55 PM 44.6 °F 42.2 °F 28.4 °F 53% 30.11 in 10.0 mi South 4.6 mph - N/A   Clear
7:15 PM 44.6 °F 40.7 °F 28.4 °F 53% 30.10 in 10.0 mi South 6.9 mph - N/A   Clear
7:35 PM 44.6 °F 41.4 °F 28.4 °F 53% 30.11 in 10.0 mi South 5.8 mph - N/A   Clear
7:55 PM 44.6 °F 41.4 °F 30.2 °F 57% 30.10 in 10.0 mi SSE 5.8 mph - N/A   Clear
8:15 PM 42.8 °F 39.3 °F 30.2 °F 61% 30.10 in 10.0 mi SSE 5.8 mph - N/A   Clear
8:35 PM 42.8 °F 39.3 °F 30.2 °F 61% 30.10 in 10.0 mi SSE 5.8 mph - N/A   Clear
8:55 PM 42.8 °F 39.3 °F 30.2 °F 61% 30.09 in 10.0 mi SSE 5.8 mph - N/A   Clear
9:15 PM 42.8 °F 39.3 °F 30.2 °F 61% 30.09 in 10.0 mi South 5.8 mph - N/A   Clear
9:35 PM 39.2 °F 35.9 °F 30.2 °F 70% 30.09 in 10.0 mi SSE 4.6 mph - N/A   Clear
9:55 PM 37.4 °F 33.8 °F 30.2 °F 75% 30.09 in 10.0 mi SSE 4.6 mph - N/A   Clear
10:15 PM 39.2 °F 35.9 °F 30.2 °F 70% 30.09 in 10.0 mi SSE 4.6 mph - N/A   Clear
10:35 PM 37.4 °F 32.8 °F 30.2 °F 75% 30.08 in 10.0 mi South 5.8 mph - N/A   Clear
10:55 PM 37.4 °F 32.8 °F 30.2 °F 75% 30.08 in 10.0 mi South 5.8 mph - N/A   Clear
11:15 PM 39.2 °F 34.2 °F 30.2 °F 70% 30.07 in 10.0 mi South 6.9 mph - N/A   Clear
11:35 PM 37.4 °F 32.1 °F 30.2 °F 75% 30.07 in 10.0 mi South 6.9 mph - N/A   Clear
11:55 PM 37.4 °F 33.8 °F 28.4 °F 70% 30.06 in 10.0 mi South 4.6 mph - N/A   Clear